Погода в Раякосках

Россия / Мурманская область     69°01′15″N   29°00′26″E
темп.,
°C
ветер,
м/с
пор.,
м/с
влажн.,
%
обл.,
%
осадки,
мм/ч
давл.,
гПа
погр.,
м
6 марта, сб
сб600:00−11ю398892 0.0 1004213
03:00−9ю4129296 0.2 1000481
06:00−8ююз4994100 1.6 995527
09:00−8ю41093100 2.0 992451
12:00−6ю3693100 0.4 989442
15:00−5юв4791100 0.8 987513
18:00−6вюв4794100 0.5 986417
21:00−8в4795100 1.1 988329
7 марта, вс
вс700:00−9св3695100 0.4 992196
03:00−9св3694100 0.6 996175
06:00−10св2595100 0.1 1000143
09:00−11всв4889100 0.4 1004338
12:00−9св3582100 0.0 1008335
15:00−8ссв238588 0.0 1010288
18:00−12св11913 0.0 101221
21:00−14ююв11906 0.0 101320
8 марта, пн
пн800:00−15ю119170 0.0 101520
03:00−16ю129280 0.0 101520
06:00−14ююв1296100 0.1 101525
09:00−15ю2296100 0.2 101650
12:00−11ю239196 0.1 1016205
15:00−10ю238992 0.1 1017339
18:00−12ююз229589 0.0 101721
21:00−15ююз239666 0.0 101724
9 марта, вт
вт900:00−16юз239614 0.0 101823
03:00−17зюз23967 0.0 101833
06:00−19зюз22970 0.0 101929
09:00−18юз22950 0.0 102033
12:00−14з24880 0.0 1021295
15:00−12зюз248610 0.0 1021382
18:00−14зюз229470 0.0 102120
21:00−17зюз239651 0.0 102123
10 марта, ср
ср1000:00−18зюз239447 0.0 102134
03:00−19юз239536 0.0 102042
06:00−19ююз35944 0.0 101989
09:00−18ююз3108918 0.0 1017286
12:00−14юз5118669 0.0 1015558
15:00−12юз6118684 0.1 1012736
18:00−12юз51188100 0.1 1009691
21:00−14юз3994100 0.1 1007285